TIME,DELAY(SENSOR),PRES,OXYGEN,RAWTEMP,T(OPTODE),TCPHASE,FLUOR,BETA(BETA700),BETA(BETA412),BETA(BETA440),CDOM,C(CSC),ED(ED411.90),ED(ED443.80),ED(ED489.40),ED(ED554.70),LU(LU412.20),LU(LU443.80),LU(LU489.40),LU(LU555.00),COMP,TILTX,TILTY,CHECK
1377381676,5807,903.0100097656250000,126.3977966308593800,425.9979858398437500,9.8087558746337890,42.2429199218750000,92,2442,49,50,57,10312,2146960768,2147515401,2147288438,2147497718,2147083346,2146921051,2147702957,2147122889,1015,-1,8,43038
1377385272,5807,1038.3100585937500000,154.1636962890625000,510.3176879882812500,7.2090401649475100,41.2671318054199200,96,2492,49,52,57,10306,2146963337,2147517531,2147301513,2147515163,2147083410,2146915099,2147721654,2147121536,3169,-1,8,18120
1377388872,5804,1070.3800048828125000,134.0039062500000000,525.7454833984375000,6.7284832000732420,43.1901016235351560,97,2513,49,50,56,10281,2146966043,2147519670,2147302043,2147516077,2147086381,2146918226,2147722861,2147122048,3565,-1,8,52810
1377392472,5804,1072.6800537109375000,177.7557067871093800,529.3082885742188000,6.6172661781311035,39.8683815002441400,98,2507,49,50,56,10287,2146964306,2147517659,2147300781,2147515638,2147084269,2146916763,2147724571,2147123794,2879,0,8,40891
1377396072,5806,1074.0799560546875000,133.4391021728515600,527.7550048828125000,6.6657657623291020,43.2729301452636700,97,2498,50,50,57,10288,2146960566,2147516992,2147302134,2147515419,2147081737,2146918189,2147721206,2147122139,3285,-1,8,57855
1377399672,5804,1080.2500000000000000,158.2191925048828000,527.1068725585938000,6.6859970092773440,41.2460899353027340,97,2496,48,50,56,10285,2146966518,2147518683,2147300589,2147516123,2147083364,2146917604,2147722998,2147121069,3389,-1,8,51079
1377403272,5808,1079.7099609375000000,126.5142974853515600,527.1289062500000000,6.6853098869323730,43.8746986389160160,98,2499,49,50,55,10283,2146966802,2147519972,2147304768,2147514203,2147084516,2146919149,2147722861,2147123337,3523,-1,8,1260
1377406872,5806,1070.2800292968750000,157.3215942382812500,518.1763916015625000,6.9644618034362790,41.1580505371093750,98,2499,49,50,56,10283,2146963821,2147521334,2147305042,2147514761,2147083675,2146914843,2147722349,2147122761,3512,-1,8,40973
1377410472,5805,1064.4000244140625000,166.8992004394531200,519.5526733398438000,6.9215860366821290,40.4655303955078100,99,2505,49,50,57,10282,2146967780,2147521682,2147300781,2147516214,2147085604,2146919616,2147721097,2147123145,320,-1,8,21029
1377414072,5810,1061.4499511718750000,134.1127929687500000,520.8073120117188000,6.8824858665466310,43.0964508056640600,99,2506,50,51,56,10277,2146960512,2147516736,2147300580,2147516470,2147083693,2146919670,2147720310,2147122066,3573,-1,8,24119
1377417672,5807,1043.4599609375000000,175.1528015136718800,513.2393798828125000,7.1181612014770510,39.7647590637207000,98,2503,50,51,56,10276,2146967469,2147521764,2147301129,2147514112,2147084909,2146919158,2147716672,2147120365,420,-1,8,2340
1377421272,5807,1040.3399658203125000,154.4308929443359400,514.3355712890625000,7.0840458869934080,41.3160591125488300,98,2518,50,50,57,10275,2146960429,2147521197,2147299529,2147512237,2147083693,2146923264,2147715830,2147122002,3347,-1,8,26330
1377424872,5807,1036.7299804687500000,161.2548980712890600,515.0084228515625000,7.0631070137023930,40.8047103881835940,98,2524,49,51,55,10276,2146963190,2147514221,2147299401,2147514971,2147083977,2146912795,2147720027,2147120137,3322,-1,8,13676
1377428472,5808,1024.8000488281250000,129.7666931152343800,505.8995056152344000,7.3463511466979980,43.2310714721679700,99,2524,48,51,56,10274,2146964608,2147516297,2147299986,2147510994,2147082468,2146919908,2147720475,2147122880,339,-1,8,44729
1377432072,5807,1027.0400390625000000,149.9824066162109400,503.7264099121094000,7.4138388633728030,41.4851188659668000,99,2532,49,51,56,10273,2146964626,2147515977,2147302418,2147509220,2147083766,2146922944,2147714166,2147122715,661,-1,8,54148
1377435672,5805,1027.2099609375000000,142.0997924804687500,503.7474975585937500,7.4131851196289060,42.1292190551757800,99,2543,49,50,55,10273,2146962477,2147518025,2147301156,2147511049,2147085723,2146922715,2147718564,2147125604,121,-1,8,32727
1377439272,5809,1033.7500000000000000,154.2138977050781200,502.6236877441406000,7.4480710029602050,41.1306381225585940,99,2546,49,52,57,10268,2146963428,2147518646,2147300406,2147510134,2147085010,2146917787,2147714733,2147121206,385,-1,8,33202
1377442872,5807,1039.4899902343750000,143.6121978759765600,498.7528991699219000,7.5681791305541990,41.9185409545898440,100,2750,50,50,56,10266,2146964589,2147517531,2147294912,2147509421,2147085046,2146915885,2147718884,2147121124,610,0,8,28338
1377446472,5804,1038.8699951171875000,160.9544067382812500,498.0898132324219000,7.5887432098388670,40.5340995788574200,99,2550,48,50,55,10273,2146960585,2147517494,2147297453,2147510902,2147084315,2146920502,2147717138,2147120411,2868,-1,8,17799
1377450072,5808,1022.8499755859375000,137.4855957031250000,487.7188110351562500,7.9100089073181150,42.2511100769043000,99,2556,49,50,57,10269,2146962029,2147515465,2147297984,2147506523,2147083867,2146924352,2147709805,2147125549,20,0,8,49361
1377453672,5807,1018.5399780273438000,87.3321533203125000,487.7486877441406000,7.9090871810913090,47.2318191528320300,100,2560,49,51,57,10271,2146962294,2147518445,2147300644,2147509997,2147080813,2146919634,2147712292,2147123638,3250,-1,8,43630
1377457272,5809,1011.8300170898438000,68.3148574829101600,488.3399047851562500,7.8907899856567380,49.5450592041015600,101,2562,49,51,56,10271,2146966555,2147517504,2147298386,2147505115,2147082185,2146922212,2147716937,2147124672,40,-1,7,29137
1377460872,5804,1016.7399902343750000,123.3757019042968800,488.4356994628906000,7.8878259658813480,43.5249290466308600,100,2562,49,51,56,10269,2146962011,2147517915,2147297581,2147508306,2147086939,2146921444,2147712850,2147122733,3433,0,8,43084
1377464472,5805,1012.9699707031250000,97.8853530883789000,488.6636962890625000,7.8807711601257320,46.0731506347656250,100,2565,50,50,56,10265,2146960603,2147517897,2147298962,2147508781,2147083474,2146918802,2147712676,2147120320,3379,-1,8,19389
1377468072,5799,1013.7500000000000000,138.3397064208984400,488.9465026855469000,7.8720149993896480,42.1987495422363300,101,2569,49,50,55,10265,2146965046,2147517110,2147301110,2147505846,2147084379,2146920256,2147716827,2147120219,3511,-1,8,62013
1377471672,5804,1020.1199951171875000,125.0014038085937500,488.0593872070312500,7.8994698524475100,43.3677902221679700,100,2572,48,50,55,10263,2146963538,2147520155,2147299392,2147504960,2147082322,2146923940,2147714770,2147123300,3522,-1,8,43744
1377475272,5806,1017.6400146484375000,122.4027023315429700,488.3086853027344000,7.8917579650878910,43.6143112182617200,101,2578,50,50,55,10256,2146961901,2147519606,2147300800,2147509248,2147087396,2146924251,2147713161,2147123721,3435,-1,8,15640
1377478872,5804,1019.5700073242188000,114.1837997436523400,488.6492919921875000,7.8812141418457030,44.4058990478515600,100,2581,49,50,56,10254,2146963026,2147518171,2147297252,2147508690,2147083968,2146920740,2147713773,2147122203,3431,-1,8,29030
1377482472,5804,1018.5999755859375000,136.4349975585937500,488.1978149414062500,7.8951869010925290,42.3493194580078100,100,2586,49,51,55,10261,2146961371,2147516233,2147299904,2147506221,2147085522,2146921792,2147711780,2147125348,3428,-1,8,15447
1377486072,5809,1020.5900268554688000,141.2707061767578000,487.7723083496094000,7.9083552360534670,41.9295005798339840,100,2588,49,50,56,10253,2146963181,2147518381,2147300352,2147505444,2147083419,2146921353,2147715008,2147123556,469,-1,8,3787
1377489672,5807,1023.4699707031250000,137.6259002685547000,487.4020080566406000,7.9198141098022460,42.2333984375000000,101,2591,49,50,56,10255,2146960969,2147519817,2147300553,2147509824,2147084982,2146919414,2147714870,2147122889,404,-1,8,4482
1377493272,5807,1021.8699951171875000,131.2400970458984400,487.9513854980469000,7.9028120040893555,42.8013114929199200,101,2595,49,50,55,10253,2146964452,2147522212,2147298587,2147505828,2147081225,2146924955,2147714880,2147120429,549,-1,8,47031
1377496872,5808,1018.2800292968750000,159.4373931884765600,488.5620117187500000,7.8839178085327150,40.4858894348144500,101,2600,49,50,56,10251,2146967049,2147520173,2147297883,2147509732,2147080932,2146920539,2147714048,2147123931,3595,-1,8,5282
1377500472,5806,1014.4099731445312000,154.2362060546875000,491.2326965332031000,7.8012361526489260,40.9342689514160160,102,2603,49,51,55,10256,2146963520,2147518107,2147299712,2147511862,2147083145,2146924644,2147711652,2147119762,3428,-1,8,3599
1377504072,5807,1010.4199829101562000,150.4942932128906200,492.2915954589844000,7.7684421539306640,41.2484397888183600,102,2607,48,51,57,10254,2146965129,2147517961,2147300315,2147510336,2147083126,2146921490,2147713216,2147123300,3292,-1,8,63447
1377507672,5807,1013.2800292968750000,163.0055999755859400,492.3026123046875000,7.7681050300598145,40.2808990478515600,103,2609,50,51,57,10253,2146966509,2147516672,2147300324,2147509467,2147085074,2146925714,2147714834,2147119186,3207,-1,8,5362
1377511272,5806,1012.5200195312500000,160.0782012939453000,492.4892883300781000,7.7623200416564940,40.5036392211914060,102,2609,49,51,56,10253,2146967478,2147518866,2147300105,2147511661,2147081627,2146920292,2147713545,2147120301,3361,-1,8,41476
1377514872,5804,1013.7100219726562000,157.0321960449218800,492.5498962402344000,7.7604432106018070,40.7385101318359400,102,2612,48,51,57,10251,2146960713,2147515858,2147299291,2147510217,2147086299,2146916653,2147717120,2147124297,3310,-1,8,57683
1377518472,5807,1013.5800170898438000,161.8291015625000000,492.4520874023437500,7.7634720802307130,40.3718490600585940,103,2615,50,51,55,10249,2146966802,2147518326,2147299382,2147510710,2147082459,2146920137,2147715483,2147123821,261,-1,8,55514
1377522072,5809,1016.4600219726562000,150.1051940917968800,492.3483886718750000,7.7666850090026855,41.2802886962890600,101,2619,49,52,57,10251,2146960685,2147517577,2147299739,2147511798,2147083858,2146922742,2147715309,2147122788,31,-1,8,43807
1377523855,5807,1022.4899902343750000,154.8661041259765600,491.2626953125000000,7.8003091812133790,40.8850517272949200,102,2635,48,51,57,10258,2146964114,2147518829,2147301769,2147509065,2147083666,2146914276,2147716425,2147119670,114,-1,8,37155
